NUDT-PHONESAT (40900 NORAD) Tracking and Keplerian Element Data

This shows tracking and keplerian element data for the satellite.

Feedback or suggestion? Click here.




ElementValue
Catalog40900
NameNUDT-PHONESAT
Epoch Orbit41821
Epoch Day85.04774332
Epoch Year2023
RAAN114.7279
Inclination97.3486
Eccentricity0.0005438
Argument of Perigee217.3472
Mean Anonmoly171.7432
Mean Motion16.06847725
Decay Rate0.02131059
L11 40900U 15049B 23085.04774332 .02131059 38968-2 29818-2 0 9997
L22 40900 97.3486 114.7279 0005438 217.3472 171.7432 16.06847725418216



Live tracking and technical data element details for NUDT-PHONESAT (NORAD 40900). NUDT-PHONESAT can be tracked NOW for your location showing map with azimuth and elevation plus other details from your city location.







IsCatalogInMostPopularTable: catalog: 40900, numindb: 453
Update: records affected: 1



GetName: 40900 NUDT-PHONESAT

Hit Count: updated at: Thu, 23 Jan 2025 18:13:23 GMT